sat.trackr.live / text

‹ back to catalog

STARLINK-34448

NORAD 64291 · 2025-123A

PAYLOAD ACTIVE UNKNOWN

§ Identity

Operator
Country
US
Launch date
2025-06-08
Launch site
AFWTR
Launch vehicle
Mass (kg)
RCS (m²)

Purposes: comms

External: N2YO · Heavens-Above · Gunter

§ Orbital elements

Epoch: 2026-09-20T16:57:45.715968Z

Period
94.14 min
Inclination
70.0013°
Eccentricity
0.0003849
Mean motion
15.29576985 rev/d
Perigee alt
474.4 km
Apogee alt
479.7 km
Semi-major
6,855.2 km
B*
6.3595e-4
RAAN
60.2295°
Arg perigee
269.9339°
Mean anomaly
90.1395°
Rev number
7,211

§ Raw data

STARLINK-344481 64291U 25123A   26263.70677912  .00018197  00000+0  63595-3 0  99992 64291  70.0013  60.2295 0003849 269.9339  90.1395 15.29576985 72119

JSON: /api/v1/satellites/64291 · /tle

For live sub-satellite position, see the globe view (requires WebGL).

§ Visibility from observer

Set your observer location to see the next 7 days of passes ≥ 10°. The values pass through the URL so the page stays shareable.

No JS? Fill the form by hand. The geolocation button needs JavaScript.